Location: Mitty Observatory
(35.9148°N, 88.8847°W)
Time: 22:22:22
(UTC-06:00)

LightSail 2 - Visible Passes

Search period start: 21 January 2021 00:00
Search period end: 31 January 2021 00:00
Orbit: 684 x 713 km, 24.0° (Epoch: 21 January)

Date Brightness Start Highest point End Pass type
(mag) Time Alt. Az. Time Alt. Az. Time Alt. Az.
21 Jan 8.0 06:06:34 10° S 06:07:12 10° SSE 06:07:50 10° SSE visible
23 Jan 7.6 05:44:35 10° SSW 05:47:01 14° SSE 05:49:27 10° SE visible
24 Jan 7.7 04:43:49 10° S 04:44:43 10° SSE 04:45:37 10° SSE visible
24 Jan 7.3 06:25:41 10° SW 06:29:09 19° S 06:32:37 10° SE visible
25 Jan 7.3 05:23:42 10° SSW 05:26:48 17° S 05:29:55 10° SE visible
26 Jan 7.5 04:24:49 14° SSE 04:24:49 14° SSE 04:26:57 10° SE visible
26 Jan 7.1 06:05:18 10° SW 06:08:56 20° S 06:12:34 10° SE visible
27 Jan 7.0 05:04:53 16° SSW 05:06:33 19° S 05:10:01 10° SE visible
28 Jan 7.6 04:06:13 13° SE 04:06:13 13° SE 04:07:18 10° SE visible
28 Jan 7.0 05:45:02 10° SW 05:48:40 20° S 05:52:19 10° SE visible
29 Jan 6.9 04:46:09 20° S 04:46:15 20° S 04:49:53 10° SE visible
29 Jan 7.2 06:27:30 10° SW 06:30:46 17° S 06:34:01 10° SSE visible
30 Jan 7.0 05:26:04 14° SW 05:28:21 19° S 05:31:52 10° SE visible
